| time (UTC) | temp C | wind direction | speed KPH | gust KPH | rain 1hr cm | rain 24hr cm | rain mn cm | humidity % | barometer mb |
| 20260505074724 | 21 | 245 | 6.4 | 9.7 | 0.00 | 0.00 | 0.00 | 99 | 1011.2 |
| 20260505074221 | 21 | 189 | 0.0 | 14.5 | 0.00 | 0.00 | 0.00 | 99 | 1011.5 |
| 20260505073718 | 21 | 220 | 3.2 | 11.3 | 0.00 | 0.00 | 0.00 | 99 | 1011.3 |
| 20260505073216 | 21 | 141 | 4.8 | 12.9 | 0.00 | 0.00 | 0.00 | 99 | 1011.4 |
| 20260505072712 | 21 | 144 | 3.2 | 8.0 | 0.00 | 0.00 | 0.00 | 99 | 1011.3 |
| 20260505072208 | 22 | 117 | 3.2 | 14.5 | 0.00 | 0.00 | 0.00 | 99 | 1011.5 |
| 20260505071704 | 22 | 0 | 1.6 | 9.7 | 0.00 | 0.00 | 0.00 | 99 | 1011.9 |
| 20260505071201 | 22 | 167 | 0.0 | 11.3 | 0.00 | 0.00 | 0.00 | 99 | 1011.7 |
| 20260505070659 | 22 | 240 | 9.7 | 11.3 | 0.00 | 0.00 | 0.00 | 99 | 1011.9 |
| 20260505070155 | 22 | 221 | 3.2 | 17.7 | 0.00 | 0.00 | 0.00 | 99 | 1011.8 |
| 20260505065651 | 22 | 143 | 4.8 | 9.7 | 0.00 | 0.00 | 0.00 | 99 | 1011.8 |
| 20260505065148 | 22 | 100 | 6.4 | 20.9 | 0.00 | 0.00 | 0.00 | 99 | 1011.8 |
| 20260505064644 | 22 | 82 | 6.4 | 8.0 | 0.00 | 0.00 | 0.00 | 99 | 1012.0 |
| 20260505064143 | 22 | 195 | 0.0 | 14.5 | 0.00 | 0.00 | 0.00 | 99 | 1011.9 |
| 20260505063640 | 22 | 192 | 6.4 | 11.3 | 0.00 | 0.00 | 0.00 | 99 | 1012.1 |
| 20260505063136 | 22 | 230 | 6.4 | 11.3 | 0.00 | 0.00 | 0.00 | 99 | 1012.0 |
| 20260505062633 | 22 | 243 | 8.0 | 14.5 | 0.00 | 0.00 | 0.00 | 99 | 1012.2 |
| 20260505062130 | 22 | 205 | 6.4 | 14.5 | 0.00 | 0.00 | 0.00 | 99 | 1012.2 |
| 20260505061627 | 22 | 160 | 4.8 | 14.5 | 0.00 | 0.00 | 0.00 | 99 | 1012.0 |
| 20260505061125 | 22 | 81 | 0.0 | 8.0 | 0.00 | 0.00 | 0.00 | 99 | 1012.0 |
| 20260505060622 | 22 | 103 | 0.0 | 12.9 | 0.00 | 0.00 | 0.00 | 99 | 1012.0 |
| 20260505060119 | 22 | 186 | 1.6 | 11.3 | 0.00 | 0.00 | 0.00 | 99 | 1012.0 |
| 20260505055614 | 22 | 222 | 4.8 | 9.7 | 0.00 | 0.00 | 0.00 | 99 | 1012.1 |
| 20260505055111 | 22 | 90 | 1.6 | 9.7 | 0.00 | 0.00 | 0.00 | 99 | 1012.2 |
| 20260505054608 | 22 | 272 | 0.0 | 14.5 | 0.00 | 0.00 | 0.00 | 99 | 1012.4 |
| 20260505054106 | 22 | 196 | 6.4 | 9.7 | 0.00 | 0.00 | 0.00 | 99 | 1012.2 |
| 20260505053603 | 22 | 114 | 0.0 | 16.1 | 0.00 | 0.00 | 0.00 | 99 | 1012.2 |
| 20260505053100 | 22 | 205 | 8.0 | 14.5 | 0.00 | 0.00 | 0.00 | 99 | 1012.2 |
| 20260505052556 | 22 | 123 | 3.2 | 4.8 | 0.00 | 0.00 | 0.00 | 99 | 1012.4 |
| 20260505052054 | 22 | 304 | 3.2 | 11.3 | 0.00 | 0.00 | 0.00 | 99 | 1012.6 |
| 20260505051550 | 22 | 157 | 0.0 | 17.7 | 0.00 | 0.00 | 0.00 | 99 | 1012.3 |
| 20260505050437 | 23 | 225 | 3.2 | 14.5 | 0.00 | 3.38 | 3.38 | 99 | 1012.1 |
| 20260505041405 | 23 | 192 | 1.6 | 12.9 | 0.00 | 3.38 | 3.38 | 99 | 1012.8 |
| 20260505040902 | 23 | 222 | 0.0 | 17.7 | 0.00 | 3.38 | 3.38 | 99 | 1012.8 |
| 20260505040359 | 23 | 120 | 1.6 | 6.4 | 0.00 | 3.38 | 3.38 | 99 | 1012.7 |
| 20260505035856 | 23 | 66 | 0.0 | 11.3 | 0.00 | 3.38 | 3.38 | 99 | 1012.6 |
| 20260505035352 | 23 | 291 | 1.6 | 8.0 | 0.00 | 3.38 | 3.38 | 99 | 1012.5 |
| 20260505034849 | 23 | 151 | 3.2 | 11.3 | 0.00 | 3.38 | 3.38 | 99 | 1012.5 |
| 20260505034346 | 23 | 106 | 3.2 | 9.7 | 0.00 | 3.38 | 3.38 | 99 | 1012.3 |
| 20260505033843 | 23 | 69 | 0.0 | 11.3 | 0.00 | 3.38 | 3.38 | 99 | 1012.4 |
| 20260505033339 | 23 | 162 | 3.2 | 14.5 | 0.00 | 3.38 | 3.38 | 99 | 1012.5 |
| 20260505032838 | 23 | 228 | 0.0 | 4.8 | 0.00 | 3.38 | 3.38 | 99 | 1012.6 |
| 20260505032334 | 23 | 135 | 3.2 | 11.3 | 0.00 | 3.38 | 3.38 | 99 | 1012.6 |
| 20260505031831 | 23 | 245 | 0.0 | 11.3 | 0.00 | 3.38 | 3.38 | 99 | 1012.6 |
| 20260505031328 | 23 | 248 | 0.0 | 9.7 | 0.00 | 3.38 | 3.38 | 99 | 1012.5 |
| 20260505030825 | 23 | 142 | 6.4 | 9.7 | 0.00 | 3.38 | 3.38 | 99 | 1012.8 |
| 20260505030321 | 23 | 127 | 4.8 | 8.0 | 0.00 | 3.38 | 3.38 | 99 | 1012.5 |
| 20260505025816 | 23 | 96 | 3.2 | 11.3 | 0.00 | 3.38 | 3.38 | 99 | 1012.6 |
| 20260505025315 | 23 | 218 | 8.0 | 8.0 | 0.00 | 3.38 | 3.38 | 99 | 1012.8 |
| 20260505024813 | 23 | 132 | 0.0 | 9.7 | 0.00 | 3.38 | 3.38 | 99 | 1012.6 |
| 20260505024310 | 23 | 233 | 0.0 | 19.3 | 0.00 | 3.38 | 3.38 | 99 | 1012.6 |
| 20260505023807 | 23 | 135 | 3.2 | 11.3 | 0.00 | 3.38 | 3.38 | 99 | 1012.4 |
| 20260505023304 | 23 | 74 | 0.0 | 6.4 | 0.00 | 3.38 | 3.38 | 99 | 1012.6 |
| 20260505022801 | 23 | 235 | 3.2 | 12.9 | 0.00 | 3.38 | 3.38 | 99 | 1012.3 |
| 20260505022258 | 23 | 222 | 4.8 | 6.4 | 0.00 | 3.38 | 3.38 | 99 | 1012.4 |
| 20260505021755 | 23 | 203 | 8.0 | 11.3 | 0.00 | 3.38 | 3.38 | 99 | 1012.4 |
| 20260505021252 | 23 | 194 | 0.0 | 12.9 | 0.00 | 3.38 | 3.38 | 99 | 1012.2 |
| 20260505020748 | 23 | 151 | 3.2 | 9.7 | 0.00 | 3.38 | 3.38 | 99 | 1012.1 |
| 20260505020243 | 23 | 45 | 0.0 | 8.0 | 0.00 | 3.38 | 3.38 | 99 | 1012.2 |
| 20260505015740 | 24 | 90 | 1.6 | 12.9 | 0.00 | 3.38 | 3.38 | 99 | 1012.2 |
| 20260505015237 | 23 | 213 | 3.2 | 8.0 | 0.00 | 3.38 | 3.38 | 99 | 1012.3 |
| 20260505014734 | 24 | 270 | 3.2 | 8.0 | 0.00 | 3.38 | 3.38 | 99 | 1012.5 |
| 20260505014232 | 24 | 128 | 4.8 | 12.9 | 0.00 | 3.38 | 3.38 | 99 | 1012.5 |
| 20260505013728 | 24 | 135 | 4.8 | 6.4 | 0.00 | 3.38 | 3.38 | 99 | 1012.3 |
| 20260505013225 | 24 | 188 | 0.0 | 8.0 | 0.00 | 3.38 | 3.38 | 99 | 1012.3 |
| 20260505012724 | 24 | 173 | 1.6 | 11.3 | 0.00 | 3.38 | 3.38 | 99 | 1012.3 |
| 20260505012221 | 24 | 153 | 6.4 | 8.0 | 0.00 | 3.38 | 3.38 | 99 | 1012.2 |
| 20260505011716 | 25 | 234 | 0.0 | 8.0 | 0.00 | 3.38 | 3.38 | 99 | 1012.2 |
| 20260505011214 | 25 | 120 | 1.6 | 14.5 | 0.00 | 3.38 | 3.38 | 99 | 1012.3 |
| 20260505010709 | 25 | 258 | 8.0 | 19.3 | 0.00 | 3.38 | 3.38 | 99 | 1012.3 |
| 20260505010206 | 25 | 135 | 4.8 | 12.9 | 0.00 | 3.38 | 3.38 | 99 | 1012.2 |
| 20260505005702 | 25 | 217 | 0.0 | 14.5 | 0.00 | 3.38 | 3.38 | 99 | 1012.0 |
| 20260505005159 | 25 | 123 | 0.0 | 8.0 | 0.00 | 3.38 | 3.38 | 99 | 1012.1 |
| 20260505004656 | 25 | 246 | 1.6 | 16.1 | 0.00 | 3.38 | 3.38 | 99 | 1012.2 |
| 20260505004153 | 25 | 119 | 4.8 | 35.4 | 0.00 | 3.38 | 3.38 | 99 | 1012.0 |
| 20260505003650 | 25 | 212 | 0.0 | 9.7 | 0.00 | 3.38 | 3.38 | 99 | 1012.4 |
| 20260505003147 | 25 | 152 | 4.8 | 14.5 | 0.00 | 3.38 | 3.38 | 99 | 1012.4 |
| 20260505002644 | 25 | 153 | 6.4 | 11.3 | 0.00 | 3.38 | 3.38 | 99 | 1012.2 |
| 20260505002142 | 25 | 82 | 0.0 | 14.5 | 0.00 | 3.38 | 3.38 | 99 | 1012.4 |
| 20260505001638 | 25 | 90 | 0.0 | 12.9 | 0.00 | 3.38 | 3.38 | 99 | 1012.4 |
| 20260505001136 | 25 | 221 | 3.2 | 9.7 | 0.00 | 3.38 | 3.38 | 99 | 1012.5 |
| 20260505000633 | 26 | 217 | 11.3 | 29.0 | 0.00 | 3.38 | 3.38 | 99 | 1012.5 |
| 20260505000131 | 26 | 210 | 4.8 | 17.7 | 0.00 | 3.38 | 3.38 | 99 | 1012.4 |
| 20260504235627 | 26 | 131 | 0.0 | 14.5 | 0.00 | 3.38 | 3.38 | 99 | 1012.5 |
| 20260504235124 | 26 | 135 | 4.8 | 19.3 | 0.00 | 3.38 | 3.38 | 99 | 1012.4 |
| 20260504234621 | 26 | 175 | 8.0 | 11.3 | 0.00 | 3.38 | 3.38 | 99 | 1012.4 |
| 20260504234118 | 26 | 195 | 1.6 | 9.7 | 0.00 | 3.38 | 3.38 | 99 | 1012.6 |
| 20260504233613 | 26 | 218 | 4.8 | 17.7 | 0.00 | 3.38 | 3.38 | 99 | 1012.6 |
| 20260504233110 | 26 | 202 | 4.8 | 20.9 | 0.00 | 3.38 | 3.38 | 99 | 1012.5 |
| 20260504232607 | 26 | 142 | 4.8 | 14.5 | 0.00 | 3.38 | 3.38 | 99 | 1012.6 |
| 20260504232105 | 26 | 248 | 14.5 | 14.5 | 0.00 | 3.38 | 3.38 | 99 | 1012.6 |
| 20260504231601 | 26 | 173 | 1.6 | 30.6 | 0.00 | 3.38 | 3.38 | 99 | 1012.7 |
| 20260504231057 | 26 | 216 | 3.2 | 12.9 | 0.00 | 3.38 | 3.38 | 99 | 1012.7 |
| 20260504230553 | 26 | 147 | 4.8 | 14.5 | 0.00 | 3.38 | 3.38 | 99 | 1013.0 |
| 20260504230053 | 27 | 211 | 6.4 | 19.3 | 20.27 | 3.38 | 3.38 | 99 | 1012.9 |
| 20260504225549 | 27 | 203 | 24.1 | 24.1 | 20.27 | 3.38 | 3.38 | 99 | 1012.7 |
| 20260504225046 | 27 | 147 | 6.4 | 16.1 | 0.00 | 0.00 | 0.00 | 99 | 1013.0 |
| 20260504224543 | 27 | 84 | 4.8 | 12.9 | 0.00 | 0.00 | 0.00 | 99 | 1013.1 |
| 20260504224040 | 26 | 0 | 1.6 | 20.9 | 0.00 | 0.00 | 0.00 | 99 | 1013.2 |
| 20260504223537 | 27 | 103 | 4.8 | 11.3 | 0.00 | 0.00 | 0.00 | 99 | 1013.2 |
| 20260504223033 | 27 | 211 | 24.1 | 24.1 | 0.00 | 0.00 | 0.00 | 99 | 1012.9 |
| 20260504222530 | 27 | 176 | 3.2 | 22.5 | 0.00 | 0.00 | 0.00 | 99 | 1013.0 |
| 20260504222027 | 27 | 251 | 8.0 | 17.7 | 0.00 | 0.00 | 0.00 | 99 | 1013.1 |
| 20260504221524 | 27 | 235 | 6.4 | 14.5 | 0.00 | 0.00 | 0.00 | 99 | 1013.1 |
| 20260504221021 | 27 | 125 | 11.3 | 11.3 | 0.00 | 0.00 | 0.00 | 99 | 1013.2 |
| 20260504220518 | 27 | 249 | 0.0 | 17.7 | 0.00 | 0.00 | 0.00 | 99 | 1013.2 |
| 20260504220015 | 27 | 256 | 4.8 | 8.0 | 0.00 | 0.00 | 0.00 | 99 | 1013.3 |
| 20260504215511 | 27 | 159 | 4.8 | 11.3 | 0.00 | 0.00 | 0.00 | 99 | 1013.3 |
| 20260504215009 | 28 | 278 | 1.6 | 8.0 | 0.00 | 0.00 | 0.00 | 99 | 1013.5 |
| 20260504214504 | 27 | 128 | 3.2 | 20.9 | 0.00 | 0.00 | 0.00 | 99 | 1013.5 |
| 20260504214001 | 27 | 141 | 4.8 | 17.7 | 0.00 | 0.00 | 0.00 | 99 | 1013.6 |
| 20260504213457 | 27 | 174 | 1.6 | 19.3 | 0.00 | 0.00 | 0.00 | 99 | 1013.7 |
| 20260504212955 | 27 | 158 | 4.8 | 9.7 | 0.00 | 0.00 | 0.00 | 99 | 1013.7 |
| 20260504212450 | 27 | 111 | 0.0 | 16.1 | 0.00 | 0.00 | 0.00 | 99 | 1013.4 |
| 20260504211948 | 27 | 160 | 6.4 | 11.3 | 0.00 | 0.00 | 0.00 | 99 | 1014.1 |
| 20260504211444 | 27 | 240 | 4.8 | 20.9 | 0.00 | 0.00 | 0.00 | 99 | 1014.0 |
| 20260504210942 | 27 | 96 | 4.8 | 19.3 | 0.00 | 0.00 | 0.00 | 99 | 1014.0 |
| 20260504210438 | 27 | 145 | 6.4 | 9.7 | 0.00 | 0.00 | 0.00 | 99 | 1014.2 |
| 20260504205936 | 27 | 124 | 8.0 | 12.9 | 0.00 | 0.00 | 0.00 | 99 | 1014.4 |
| 20260504205433 | 28 | 153 | 6.4 | 14.5 | 0.00 | 0.00 | 0.00 | 99 | 1014.3 |
| 20260504204931 | 27 | 236 | 6.4 | 19.3 | 0.00 | 0.00 | 0.00 | 99 | 1014.4 |
| 20260504204429 | 27 | 134 | 6.4 | 17.7 | 0.00 | 0.00 | 0.00 | 99 | 1014.6 |
| 20260504203928 | 27 | 151 | 4.8 | 19.3 | 0.00 | 0.00 | 0.00 | 99 | 1014.5 |
| 20260504203425 | 27 | 96 | 3.2 | 12.9 | 0.00 | 0.00 | 0.00 | 99 | 1014.8 |
| 20260504202921 | 27 | 192 | 0.0 | 22.5 | 0.00 | 0.00 | 0.00 | 99 | 1015.0 |
| 20260504202418 | 27 | 184 | 3.2 | 20.9 | 0.00 | 0.00 | 0.00 | 99 | 1014.9 |
| 20260504201915 | 27 | 220 | 0.0 | 25.7 | 0.00 | 0.00 | 0.00 | 99 | 1015.0 |
| 20260504201412 | 27 | 134 | 8.0 | 19.3 | 0.00 | 0.00 | 0.00 | 99 | 1015.0 |
| 20260504200909 | 27 | 261 | 1.6 | 22.5 | 0.00 | 0.00 | 0.00 | 99 | 1015.4 |
| 20260504200406 | 27 | 144 | 9.7 | 20.9 | 0.00 | 0.00 | 0.00 | 99 | 1015.4 |
| 20260504195903 | 27 | 152 | 4.8 | 29.0 | 0.00 | 0.00 | 0.00 | 99 | 1015.8 |
| 20260504195358 | 27 | 235 | 14.5 | 19.3 | 0.00 | 0.00 | 0.00 | 99 | 1015.6 |
| 20260504194855 | 27 | 284 | 11.3 | 16.1 | 0.00 | 0.00 | 0.00 | 99 | 1016.0 |
| 20260504194351 | 26 | 145 | 4.8 | 9.7 | 0.00 | 0.00 | 0.00 | 99 | 1015.9 |
| 20260504193847 | 26 | 229 | 4.8 | 22.5 | 0.00 | 0.00 | 0.00 | 99 | 1015.9 |
| 20260504193344 | 26 | 119 | 3.2 | 20.9 | 0.00 | 0.00 | 0.00 | 99 | 1015.8 |
| 20260504192843 | 26 | 96 | 3.2 | 22.5 | 0.00 | 0.00 | 0.00 | 99 | 1016.3 |
| 20260504192341 | 26 | 189 | 4.8 | 20.9 | 0.00 | 0.00 | 0.00 | 99 | 1016.2 |
| 20260504191839 | 26 | 198 | 14.5 | 14.5 | 0.00 | 0.00 | 0.00 | 99 | 1016.0 |
| 20260504191337 | 26 | 119 | 4.8 | 12.9 | 0.00 | 0.00 | 0.00 | 99 | 1016.5 |
| 20260504190832 | 26 | 172 | 4.8 | 30.6 | 0.00 | 0.00 | 0.00 | 99 | 1016.7 |
| 20260504190328 | 26 | 169 | 3.2 | 12.9 | 0.00 | 0.00 | 0.00 | 99 | 1016.4 |
| 20260504185825 | 26 | 238 | 11.3 | 25.7 | 0.00 | 0.00 | 0.00 | 99 | 1016.5 |
| 20260504185322 | 26 | 223 | 11.3 | 16.1 | 0.00 | 0.00 | 0.00 | 99 | 1016.4 |
| 20260504184818 | 26 | 212 | 4.8 | 12.9 | 0.00 | 0.00 | 0.00 | 99 | 1016.6 |
| 20260504184314 | 25 | 124 | 6.4 | 12.9 | 0.00 | 0.00 | 0.00 | 99 | 1016.5 |
| 20260504183809 | 26 | 162 | 0.0 | 16.1 | 0.00 | 0.00 | 0.00 | 99 | 1016.6 |
| 20260504183307 | 25 | 226 | 9.7 | 19.3 | 0.00 | 0.00 | 0.00 | 99 | 1016.8 |
| 20260504182805 | 25 | 198 | 9.7 | 20.9 | 0.00 | 0.00 | 0.00 | 99 | 1016.9 |
| 20260504182304 | 25 | 208 | 8.0 | 22.5 | 0.00 | 0.00 | 0.00 | 99 | 1016.8 |
| 20260504181759 | 25 | 102 | 3.2 | 11.3 | 0.00 | 0.00 | 0.00 | 99 | 1017.0 |
| 20260504181256 | 26 | 218 | 4.8 | 11.3 | 0.00 | 0.00 | 0.00 | 99 | 1017.0 |
| 20260504180755 | 25 | 187 | 3.2 | 27.4 | 0.00 | 0.00 | 0.00 | 99 | 1017.2 |
| 20260504180253 | 25 | 155 | 9.7 | 12.9 | 0.00 | 0.00 | 0.00 | 99 | 1017.0 |
| 20260504175751 | 25 | 261 | 8.0 | 14.5 | 0.00 | 0.00 | 0.00 | 99 | 1017.4 |
| 20260504175248 | 25 | 114 | 0.0 | 27.4 | 0.00 | 0.00 | 0.00 | 99 | 1017.3 |
| 20260504174745 | 25 | 234 | 17.7 | 24.1 | 0.00 | 0.00 | 0.00 | 99 | 1017.6 |
| 20260504174243 | 25 | 65 | 0.0 | 11.3 | 0.00 | 0.00 | 0.00 | 99 | 1017.6 |
| 20260504173739 | 25 | 165 | 4.8 | 19.3 | 0.00 | 0.00 | 0.00 | 99 | 1017.6 |
| 20260504173237 | 25 | 112 | 3.2 | 9.7 | 0.00 | 0.00 | 0.00 | 99 | 1017.9 |
| 20260504172733 | 25 | 263 | 4.8 | 20.9 | 0.00 | 0.00 | 0.00 | 99 | 1018.0 |
| 20260504172230 | 25 | 90 | 1.6 | 12.9 | 0.00 | 0.00 | 0.00 | 99 | 1017.8 |
| 20260504171726 | 24 | 210 | 0.0 | 30.6 | 0.00 | 0.00 | 0.00 | 99 | 1017.9 |
| 20260504171223 | 25 | 143 | 3.2 | 14.5 | 0.00 | 0.00 | 0.00 | 99 | 1018.0 |
| 20260504170720 | 25 | 125 | 4.8 | 19.3 | 0.00 | 0.00 | 0.00 | 99 | 1018.3 |
| 20260504170217 | 24 | 123 | 0.0 | 11.3 | 0.00 | 0.00 | 0.00 | 99 | 1018.3 |
| 20260504160136 | 22 | 147 | 6.4 | 9.7 | 0.00 | 0.00 | 0.00 | 99 | 1019.0 |
| 20260504151103 | 21 | 133 | 4.8 | 14.5 | 0.00 | 0.00 | 0.00 | 99 | 1019.4 |
| 20260504150601 | 21 | 162 | 3.2 | 24.1 | 0.00 | 0.00 | 0.00 | 99 | 1019.5 |
| 20260504141026 | 20 | 154 | 3.2 | 29.0 | 0.00 | 0.00 | 0.00 | 99 | 1019.9 |
| 20260504140523 | 19 | 235 | 8.0 | 14.5 | 0.00 | 0.00 | 0.00 | 99 | 1019.8 |
| 20260504130447 | 17 | 198 | 6.4 | 12.9 | 0.00 | 0.00 | 0.00 | 99 | 1020.0 |
| 20260504110334 | 16 | 97 | 1.6 | 8.0 | 0.00 | 0.00 | 0.00 | 99 | 1019.3 |
| 20260504100252 | 17 | 141 | 0.0 | 6.4 | 0.00 | 0.00 | 0.00 | 99 | 1019.6 |
| 20260504081645 | 18 | 214 | 4.8 | 8.0 | 0.00 | 0.00 | 0.00 | 99 | 1020.1 |
| 20260504081141 | 17 | 215 | 0.0 | 6.4 | 0.00 | 0.00 | 0.00 | 99 | 1020.1 |
| 20260504080638 | 18 | 182 | 0.0 | 12.9 | 0.00 | 0.00 | 0.00 | 99 | 1020.1 |
| 20260504080134 | 18 | 194 | 4.8 | 8.0 | 0.00 | 0.00 | 0.00 | 99 | 1019.9 |